This is the latest recevied weather packets stored in our database for station/object I2HLY-4. If no packets are shown the sender has not sent any weather packets the latest 10 day(s).
| Time | Temp. | Humidity | Pressure | Rain* | Wind** | Luminosity | Snow |
|---|---|---|---|---|---|---|---|
| 1777789033 | 11.11° C | 67% | 1021.5 hPa | 0 mm | - | - | - |
| 1777788132 | 10° C | 67% | 1021.3 hPa | 0 mm | - | - | - |
| 1777787236 | 9.44° C | 68% | 1021.2 hPa | 0 mm | - | - | - |
| 1777786337 | 8.89° C | 69% | 1021.2 hPa | 0 mm | - | - | - |
| 1777785441 | 8.89° C | 68% | 1021.2 hPa | 0 mm | - | - | - |
| 1777784542 | 8.89° C | 68% | 1021.1 hPa | 0 mm | - | - | - |
| 1777783643 | 8.89° C | 67% | 1021.3 hPa | 0 mm | - | - | - |
| 1777782747 | 8.33° C | 66% | 1021.1 hPa | 0 mm | - | - | - |
| 1777781848 | 8.89° C | 65% | 1021.3 hPa | 0 mm | - | - | - |
| 1777780934 | 8.89° C | 63% | 1021.1 hPa | 0 mm | - | - | - |
| 1777780035 | 8.33° C | 66% | 1021.2 hPa | 0 mm | - | - | - |
| 1777779136 | 8.89° C | 66% | 1021.2 hPa | 0 mm | - | - | - |
| 1777778240 | 8.33° C | 68% | 1021.2 hPa | 0 mm | - | - | - |
| 1777777340 | 8.33° C | 71% | 1021.4 hPa | 0 mm | - | - | - |
| 1777776441 | 8.89° C | 70% | 1021.5 hPa | 0 mm | - | - | - |
| 1777775546 | 9.44° C | 70% | 1021.5 hPa | 0 mm | - | - | - |
| 1777774649 | 9.44° C | 72% | 1021.5 hPa | 0 mm | - | - | - |
| 1777773732 | 9.44° C | 72% | 1021.7 hPa | 0 mm | - | - | - |
| 1777772833 | 10° C | 72% | 1021.8 hPa | 0 mm | - | - | - |
| 1777771936 | 10° C | 71% | 1021.9 hPa | 0 mm | - | - | - |
| 1777771036 | 10° C | 71% | 1021.9 hPa | 0 mm | - | - | - |
| 1777770133 | 10° C | 71% | 1022 hPa | 0 mm | - | - | - |
| 1777769236 | 9.44° C | 73% | 1022.3 hPa | 0 mm | - | - | - |
| 1777768346 | 9.44° C | 73% | 1022.6 hPa | 0 mm | - | - | - |
| 1777767448 | 9.44° C | 72% | 1022.7 hPa | 0 mm | - | - | - |
* Rain latest hour (hover to see other rain measurements)
** Current wind speed in m/s (hover to see current wind gust speed)